When you browse on this site, cookies collect data to enhance your experience and personalize the content and advertising you see.
Visit our Privacy Policy to learn more. By continuing to use the site, you agree to this use of cookies and data.

Hourly Weather Los Santos

Today, 11 July, Saturday

Time Temperature Precipitation Wind Pressure Humidity
00:00 +20°C° 1.2 mm 1 mps 650 mmHg 89%
01:00 +20°C° 0 mm 1 mps 649 mmHg 89%
02:00 +19°C° 0.9 mm 1 mps 649 mmHg 89%
03:00 +19°C° 0.9 mm 1 mps 649 mmHg 90%
04:00 +19°C° 0.9 mm 1 mps 648 mmHg 90%
05:00 +19°C° 0.3 mm 1 mps 649 mmHg 90%
06:00 +18°C° 0.3 mm 0 mps 649 mmHg 89%
07:00 +18°C° 0 mm 0 mps 650 mmHg 89%
08:00 +21°C° 0.2 mm 1 mps 650 mmHg 89%
09:00 +21°C° 0.2 mm 1 mps 650 mmHg 88%
10:00 +22°C° 0.2 mm 1 mps 650 mmHg 88%
11:00 +23°C° 0.5 mm 1 mps 650 mmHg 86%
12:00 +23°C° 0.5 mm 2 mps 650 mmHg 84%
13:00 +24°C° 0.5 mm 2 mps 649 mmHg 82%
14:00 +24°C° 0.4 mm 2 mps 649 mmHg 82%
15:00 +24°C° 0.4 mm 2 mps 648 mmHg 83%
16:00 +24°C° 0.4 mm 1 mps 648 mmHg 83%
17:00 +23°C° 1.6 mm 1 mps 648 mmHg 86%
18:00 +22°C° 1.6 mm 1 mps 648 mmHg 89%
19:00 +21°C° 1.6 mm 1 mps 649 mmHg 91%
20:00 +19°C° 2 mm 0 mps 649 mmHg 93%
21:00 +18°C° 2 mm 0 mps 649 mmHg 95%
22:00 +18°C° 2 mm 0 mps 649 mmHg 96%
23:00 +18°C° 0.3 mm 0 mps 649 mmHg 95%

Tomorrow, 12 July, Sunday

Time Temperature Precipitation Wind Pressure Humidity
00:00 +18°C° 0.3 mm 0 mps 649 mmHg 94%
01:00 +17°C° 0.3 mm 0 mps 649 mmHg 93%
02:00 +17°C° 0.4 mm 0 mps 649 mmHg 93%
03:00 +17°C° 0.4 mm 0 mps 649 mmHg 93%
04:00 +17°C° 0.4 mm 0 mps 648 mmHg 93%
05:00 +18°C° 0.2 mm 0 mps 649 mmHg 91%
06:00 +18°C° 0.2 mm 0 mps 649 mmHg 90%
07:00 +18°C° 0.2 mm 0 mps 650 mmHg 89%
08:00 +19°C° 0.3 mm 0 mps 650 mmHg 86%
09:00 +23°C° 0.3 mm 1 mps 650 mmHg 83%
10:00 +24°C° 0.3 mm 1 mps 651 mmHg 79%
11:00 +24°C° 0.8 mm 1 mps 650 mmHg 79%
12:00 +25°C° 0.8 mm 2 mps 650 mmHg 79%
13:00 +25°C° 0.8 mm 2 mps 649 mmHg 79%
14:00 +24°C° 1.4 mm 2 mps 649 mmHg 82%
15:00 +24°C° 1.4 mm 2 mps 648 mmHg 85%
16:00 +23°C° 1.4 mm 1 mps 647 mmHg 89%
17:00 +22°C° 1.2 mm 1 mps 648 mmHg 90%
18:00 +22°C° 1.2 mm 1 mps 648 mmHg 91%
19:00 +19°C° 1.2 mm 0 mps 649 mmHg 93%
20:00 +21°C° 0.7 mm 1 mps 649 mmHg 92%
21:00 +20°C° 0.7 mm 1 mps 649 mmHg 92%
22:00 +20°C° 0.7 mm 1 mps 650 mmHg 91%
23:00 +20°C° 0.1 mm 1 mps 649 mmHg 92%

Day after tomorrow, 13 July, Monday

Time Temperature Precipitation Wind Pressure Humidity
00:00 +19°C° 0.1 mm 1 mps 649 mmHg 92%
01:00 +19°C° 0.1 mm 1 mps 649 mmHg 92%
02:00 +19°C° 0.1 mm 1 mps 649 mmHg 92%
03:00 +17°C° 0.1 mm 0 mps 649 mmHg 92%
04:00 +17°C° 0.1 mm 0 mps 648 mmHg 92%
05:00 +18°C° 0 mm 0 mps 649 mmHg 92%
06:00 +18°C° 0 mm 0 mps 649 mmHg 92%
07:00 +18°C° 0 mm 0 mps 650 mmHg 92%
08:00 +21°C° 0.1 mm 1 mps 650 mmHg 88%
09:00 +22°C° 0.1 mm 1 mps 651 mmHg 85%
10:00 +23°C° 0.1 mm 1 mps 651 mmHg 81%
11:00 +23°C° 0.6 mm 1 mps 651 mmHg 81%
12:00 +24°C° 0.6 mm 1 mps 650 mmHg 80%
13:00 +24°C° 0.6 mm 2 mps 650 mmHg 79%
14:00 +24°C° 0.9 mm 1 mps 649 mmHg 80%
15:00 +24°C° 0.9 mm 1 mps 649 mmHg 81%
16:00 +24°C° 0.9 mm 1 mps 649 mmHg 82%
17:00 +23°C° 1.3 mm 1 mps 649 mmHg 84%
18:00 +22°C° 1.3 mm 1 mps 649 mmHg 86%
19:00 +21°C° 1.3 mm 1 mps 649 mmHg 88%
20:00 +21°C° 0.4 mm 1 mps 649 mmHg 88%
21:00 +21°C° 0.4 mm 1 mps 650 mmHg 87%
22:00 +20°C° 0.4 mm 1 mps 650 mmHg 86%
23:00 +20°C° 0.4 mm 1 mps 650 mmHg 86%

14 July, Tuesday

Time Temperature Precipitation Wind Pressure Humidity
00:00 +20°C° 0.4 mm 1 mps 649 mmHg 86%
01:00 +19°C° 0.4 mm 1 mps 649 mmHg 86%
02:00 +19°C° 0.2 mm 1 mps 649 mmHg 86%
03:00 +19°C° 0.2 mm 1 mps 648 mmHg 87%
04:00 +18°C° 0.2 mm 1 mps 648 mmHg 87%
05:00 +19°C° 0.1 mm 1 mps 649 mmHg 85%
06:00 +20°C° 0.1 mm 1 mps 649 mmHg 84%
07:00 +20°C° 0.1 mm 1 mps 650 mmHg 82%
08:00 +22°C° 0 mm 1 mps 650 mmHg 78%
09:00 +23°C° 0 mm 1 mps 651 mmHg 73%
10:00 +25°C° 0 mm 1 mps 651 mmHg 68%
11:00 +25°C° 0.4 mm 1 mps 651 mmHg 70%
12:00 +25°C° 0.4 mm 2 mps 650 mmHg 72%
13:00 +26°C° 0.4 mm 2 mps 650 mmHg 74%
14:00 +25°C° 1.1 mm 2 mps 649 mmHg 75%
15:00 +25°C° 1.1 mm 2 mps 648 mmHg 77%
16:00 +25°C° 1.1 mm 2 mps 648 mmHg 79%
17:00 +24°C° 1.6 mm 2 mps 648 mmHg 82%
18:00 +22°C° 1.6 mm 1 mps 648 mmHg 85%
19:00 +21°C° 1.6 mm 1 mps 649 mmHg 89%
20:00 +21°C° 0.6 mm 1 mps 649 mmHg 87%
21:00 +20°C° 0.6 mm 1 mps 649 mmHg 85%
22:00 +20°C° 0.6 mm 1 mps 650 mmHg 84%
23:00 +18°C° 0.2 mm 2 mps 649 mmHg 83%

15 July, Wednesday

Time Temperature Precipitation Wind Pressure Humidity
00:00 +18°C° 0.2 mm 2 mps 649 mmHg 83%
01:00 +18°C° 0.2 mm 2 mps 649 mmHg 83%
02:00 +17°C° 0 mm 2 mps 648 mmHg 82%
03:00 +17°C° 0 mm 2 mps 648 mmHg 82%
04:00 +17°C° 0 mm 2 mps 648 mmHg 82%
05:00 +17°C° 0 mm 2 mps 648 mmHg 81%
06:00 +18°C° 0 mm 2 mps 649 mmHg 80%
07:00 +19°C° 0 mm 2 mps 649 mmHg 79%
08:00 +21°C° 0 mm 1 mps 650 mmHg 73%
09:00 +23°C° 0 mm 1 mps 650 mmHg 66%
10:00 +25°C° 0 mm 1 mps 651 mmHg 60%
11:00 +25°C° 0.1 mm 1 mps 650 mmHg 60%
12:00 +26°C° 0.1 mm 2 mps 650 mmHg 61%
13:00 +27°C° 0.1 mm 2 mps 649 mmHg 61%
14:00 +26°C° 0.6 mm 2 mps 649 mmHg 65%
15:00 +26°C° 0.6 mm 2 mps 648 mmHg 69%
16:00 +26°C° 0.6 mm 2 mps 648 mmHg 73%
17:00 +24°C° 1.4 mm 1 mps 648 mmHg 78%
18:00 +23°C° 1.4 mm 1 mps 648 mmHg 83%
19:00 +21°C° 1.4 mm 1 mps 648 mmHg 88%
20:00 +21°C° 0.3 mm 1 mps 648 mmHg 87%
21:00 +20°C° 0.3 mm 1 mps 649 mmHg 86%
22:00 +20°C° 0.3 mm 1 mps 649 mmHg 84%
23:00 +20°C° 0.3 mm 1 mps 649 mmHg 84%

16 July, Thursday

Time Temperature Precipitation Wind Pressure Humidity
00:00 +19°C° 0.3 mm 1 mps 649 mmHg 83%
01:00 +18°C° 0.3 mm 2 mps 648 mmHg 83%
02:00 +19°C° 0.2 mm 1 mps 648 mmHg 83%
03:00 +19°C° 0.2 mm 1 mps 648 mmHg 82%
04:00 +19°C° 0.2 mm 1 mps 648 mmHg 82%
05:00 +19°C° 0.2 mm 1 mps 649 mmHg 81%
06:00 +20°C° 0.2 mm 1 mps 649 mmHg 80%
07:00 +20°C° 0.2 mm 1 mps 650 mmHg 79%
08:00 +22°C° 0 mm 1 mps 650 mmHg 74%
09:00 +24°C° 0 mm 1 mps 651 mmHg 68%
10:00 +26°C° 0 mm 1 mps 651 mmHg 63%
11:00 +26°C° 0.4 mm 1 mps 650 mmHg 64%
12:00 +27°C° 0.4 mm 2 mps 650 mmHg 65%
13:00 +27°C° 0.4 mm 2 mps 649 mmHg 66%
14:00 +26°C° 1.1 mm 2 mps 649 mmHg 70%
15:00 +26°C° 1.1 mm 2 mps 648 mmHg 74%
16:00 +25°C° 1.1 mm 2 mps 648 mmHg 77%
17:00 +24°C° 2.2 mm 1 mps 648 mmHg 81%
18:00 +23°C° 2.2 mm 1 mps 648 mmHg 85%
19:00 +22°C° 2.2 mm 1 mps 648 mmHg 90%
20:00 +21°C° 0.7 mm 1 mps 649 mmHg 90%
21:00 +21°C° 0.7 mm 1 mps 649 mmHg 90%
22:00 +20°C° 0.7 mm 1 mps 650 mmHg 91%
23:00 +20°C° 0.5 mm 1 mps 649 mmHg 91%
Show more